Location: Vassar Physics Lab
(41.6843°N, 73.8954°W)
Time: 13:18:57
(UTC-04:00)

CZ-4B DEB - Visible Passes

Search period start: 26 September 2016 00:00
Search period end: 06 October 2016 00:00
Orbit: 841 x 863 km, 98.9° (Epoch: 25 September)

Date Brightness Start Highest point End Pass type
(mag) Time Alt. Az. Time Alt. Az. Time Alt. Az.
26 Sep 4.3 04:40:40 10° NNE 04:46:10 74° ESE 04:50:15 18° S visible
27 Sep 4.7 04:29:20 10° NNE 04:34:44 58° ESE 04:38:38 19° S visible
27 Sep 5.5 06:11:04 10° NNW 06:14:59 20° WNW 06:18:55 10° WSW visible
28 Sep 5.1 04:18:01 10° NNE 04:23:18 46° E 04:27:00 19° SSE visible
28 Sep 5.3 05:59:19 10° N 06:03:42 25° WNW 06:08:06 10° WSW visible
29 Sep 5.5 04:06:47 10° NNE 04:11:50 37° E 04:15:23 18° SSE visible
29 Sep 5.0 05:47:40 10° N 05:52:25 31° WNW 05:57:10 10° SW visible
30 Sep 5.9 03:55:37 10° NE 04:00:21 29° E 04:03:44 16° SE visible
30 Sep 4.7 05:36:04 10° N 05:41:06 38° WNW 05:45:46 12° SW visible
01 Oct 6.2 03:44:32 10° NE 03:48:51 23° E 03:52:06 14° SE visible
01 Oct 4.4 05:24:31 10° N 05:29:46 48° WNW 05:34:08 15° SW visible
02 Oct 6.5 03:33:35 10° NE 03:37:20 18° E 03:40:28 12° SE visible
02 Oct 4.2 05:13:00 10° N 05:18:25 60° WNW 05:22:30 18° SSW visible
03 Oct 6.8 03:22:53 10° ENE 03:25:47 14° E 03:28:41 10° ESE visible
03 Oct 4.1 05:01:32 10° N 05:07:02 75° WNW 05:10:52 21° SSW visible
04 Oct 7.0 03:12:50 10° ENE 03:14:13 11° E 03:15:37 10° ESE visible
04 Oct 4.1 04:50:07 10° NNE 04:55:38 88° E 04:59:13 23° SSW visible
05 Oct 4.4 04:38:44 10° NNE 04:44:14 71° ESE 04:47:34 25° S visible
05 Oct 5.7 06:20:52 10° NNW 06:24:20 17° WNW 06:27:50 10° W visible
